Location: Hohe Wand Kleine Kanzel
(47.8330°N, 16.0170°E)
Time: 17:50:33
(UTC+02:00)

Vanguard 3 - Pass Details

Date: 04 August 2021
Orbit: 510 x 3260 km, 33.4° (Epoch: 23 September)

Event Time Altitude Azimuth Distance (km) Brightness Sun altitude
Rises 00:12:31 0° 276° (W) 6,961 12.1 -24.0°
Reaches altitude 10° 00:18:14 10° 265° (W) 6,122 11.7 -24.2°
Maximum altitude 00:32:21 26° 220° (SW) 4,886 10.7 -24.6°
Enters shadow 00:36:18 24° 203° (SSW) 4,881 10.6 -24.7°
